Terminal Aerodrome Forecast
Issued by NWS Boston, MA

Home | Current Version | Previous Version | Text Only | Print | Product List | Glossary Off
Versions: 1 2 3 4 5 6 7 8 9 10 11 12 13 14 15 16 17 18 19 20 21 22 23 24 25 26 27 28 29 30 31 32 33 34 35 36 37 38 39 40 41 42 43 44 45 46
000 FTUS41 KBOX 232322 TAFBOS TAF KBOS 232322Z 2400/2506 28008KT P6SM FEW250 FM240500 34005KT P6SM FEW250 FM241100 04006KT P6SM FEW250 FM241600 09010KT P6SM FEW050 FM250100 12006KT P6SM SCT250=

USA.gov is the U.S. government's official web portal to all federal, state and local government web resources and services.